Regional Weather Roundup
Issued by NWS

Home | Current Version | Previous Version | Text Only | Print | Product List | Glossary On
Versions: 1 2 3 4 5 6 7 8 9 10 11 12 13 14 15 16 17 18 19 20 21 22 23 24 25 26 27 28 29 30 31 32 33 34 35 36 37 38 39 40 41 42 43 44 45 46 47 48 49 50
000
ASUS44 KBMX 010810
RWRAL

ALABAMA REGIONAL WEATHER ROUNDUP
NATIONAL WEATHER SERVICE BIRMINGHAM AL
200 AM CST SUN MAR 01 2015

NOTE: "FAIR" INDICATES FEW OR NO CLOUDS BELOW 12,000 FEET
WITH NO SIGNIFICANT WEATHER AND/OR OBSTRUCTIONS TO VISIBILITY.

THE REMARK "TC" DENOTES TEMPERATURE IN DEGREES CELSIUS.

ALZ001>011-014-016>018-020-010900-
NORTH ALABAMA

CITY           SKY/WX    TMP DP  RH WIND       PRES   REMARKS
MUSCLE SHOALS  CLOUDY    48  37  65 E7        30.35F
HUNTSVILLE     CLOUDY    50  36  58 SE15      30.37F
DECATUR        CLOUDY    48  37  65 SE12      30.38F
HALEYVILLE       N/A     49  42  76 SE8       30.37F
GADSDEN        CLOUDY    48  34  57 E6        30.43F
$$

ALZ012-013-022-023-030>036-040>044-010900-
WEST CENTRAL ALABAMA

CITY           SKY/WX    TMP DP  RH WIND       PRES   REMARKS
TUSCALOOSA     CLOUDY    53  45  74 SE9G17    30.39S
$$

ALZ015-024>027-033>036-040>044-010900-
CENTRAL ALABAMA

CITY           SKY/WX    TMP DP  RH WIND       PRES   REMARKS
BIRMINGHAM     CLOUDY    50  42  74 SE12G18   30.41F
MONTGOMERY     CLOUDY    49  43  80 E14       30.43F
SHELBY CO ARPT CLOUDY    50  44  80 E7        30.41F
MAXWELL AFB    NOT AVBL
GREENVILLE     CLOUDY    48  45  89 E5        30.39F
$$

ALZ019-021-028-029-037-038-045>048-010900-
EAST CENTRAL ALABAMA

CITY           SKY/WX    TMP DP  RH WIND       PRES   REMARKS
ANNISTON       CLOUDY    48  37  65 E9        30.44F
ALEXANDER CITY CLOUDY    49  43  78 E7        30.43F
AUBURN         CLOUDY    43  37  81 E10       30.46F
$$

ALZ051>064-010900-
SOUTHWEST ALABAMA

CITY           SKY/WX    TMP DP  RH WIND       PRES   REMARKS
MOBILE         CLOUDY    50  50 100 E8        30.37F FOG
BROOKLEY FIELD CLOUDY    51  50  96 NE8       30.39F FOG
EVERGREEN      CLOUDY    48  46  93 E8        30.39F
$$

ALZ049-050-065>069-010900-
SOUTHEAST ALABAMA

CITY           SKY/WX    TMP DP  RH WIND       PRES   REMARKS
DOTHAN         CLOUDY    45  44  97 E8        30.46S FOG
OZARK          CLOUDY    46  44  93 NE8       30.41F FOG
TROY           LGT RAIN  46  44  93 E8        30.43F FOG
EUFAULA        LGT RAIN  46  43  89 E7        30.44F
$$


USA.gov is the U.S. government's official web portal to all federal, state and local government web resources and services.